#timestamp,LO_Frequency,Hit,StdDev 
1502863215.6,286047002.3,N,3.3
1502863235.4,286047001.9,N,3.1
1502863255.3,286047002.5,N,3.0
1502863275.1,286047001.5,N,2.9
1502863295.9,286047001.8,N,2.8
1502863315.7,286047004.0,N,2.7
1502863335.5,286047004.4,N,2.7
1502863355.4,286047001.7,N,2.6
1502863375.2,286047002.5,N,2.6
1502863395.1,286047001.7,N,2.5
1502863396.0,286047001.7,N,2.5
1502863415.8,286047002.0,N,2.4
1502863435.6,286047002.5,N,2.3
1502863455.5,286047002.6,N,2.3
1502863475.3,286047001.9,N,2.3
1502863495.1,286047002.2,N,2.2
1502863515.9,286047002.1,N,2.2
1502863535.7,286047001.5,N,2.1
1502863555.6,286047004.0,N,2.1
1502863575.4,286047003.6,N,2.1
1502863595.2,286047003.1,N,2.1
1502863615.1,286047004.1,N,2.0
1502863616.0,286047004.1,N,1.1
1502863635.8,286047004.0,Y,0.0
1502863655.7,286047000.7,P,0.8
1502863675.5,286047000.6,N,0.8
1502863695.3,286047001.1,N,0.7
1502863715.2,286046998.2,N,1.3
1502863735.0,286046998.4,N,1.5
1502863735.9,286046998.4,N,1.5
1502863755.8,286047000.4,N,1.4
1502863775.6,286046998.1,N,1.5
1502863795.4,286046998.4,N,1.4
1502863815.3,286047000.6,N,1.4
1502863835.1,286047000.5,N,1.4
1502863855.8,286047002.8,N,1.5
1502863875.7,286046999.9,N,1.5
1502863895.5,286047000.1,N,1.4
1502863915.4,286047002.2,N,1.5
1502863935.2,286047001.6,N,1.5
1502863955.0,286047000.4,N,1.4
1502863955.9,286047000.4,N,1.4
1502863975.8,286047001.0,N,1.4
1502863995.6,286047000.7,N,1.3
1502864015.5,286047000.4,N,1.3
1502864035.3,286046999.9,N,1.3
1502864055.1,286047000.1,N,1.3
1502864075.9,286047000.3,N,1.2
1502864095.7,286046999.9,N,1.2
1502864115.5,286047000.4,N,1.2
1502864135.4,286047000.6,N,1.2
1502864155.2,286047000.2,N,1.1
1502864175.1,286047000.1,N,1.1
1502864176.0,286047000.1,N,1.1
1502864195.8,286047002.0,N,1.1
1502864215.6,286047002.0,N,1.1
1502864235.5,286047000.1,N,1.1
1502864255.3,286047002.8,N,1.2
1502864275.1,286047002.6,N,1.2
1502864295.9,286047001.6,N,1.1
1502864315.7,286047001.6,N,1.1
1502864335.6,286047002.6,N,1.1
1502864355.4,286047001.7,N,1.0
1502864375.2,286047004.2,Y,0.0
1502864395.1,286047002.5,P,0.8
1502864396.0,286047002.5,P,0.7
1502864415.8,286047002.8,P,0.7
1502864435.7,286047000.1,N,1.1
1502864455.5,286046999.9,N,1.2
1502864475.3,286047002.6,N,1.2
1502864495.2,286047002.3,N,1.1
1502864515.0,286047000.5,N,1.1
1502864515.9,286047000.5,N,1.1
1502864535.7,286046999.7,N,1.2
1502864555.6,286046999.9,N,1.2
1502864575.4,286047000.9,N,1.1
1502864595.3,286047000.3,N,1.1
1502864615.1,286047000.4,N,1.1
1502864616.0,286047000.4,N,1.1
1502864635.8,286047000.3,N,1.1
1502864655.7,286047000.6,N,1.0
1502864675.5,286047000.0,N,1.0
1502864695.4,286047002.2,N,1.0
1502864715.2,286047002.7,N,1.1
1502864735.0,286047002.7,N,1.1
1502864735.9,286047002.7,N,1.1
1502864755.8,286047002.6,N,1.1
1502864775.6,286047002.4,N,1.1
1502864795.4,286047001.8,N,1.1
1502864815.3,286047002.2,N,1.1
1502864835.1,286047002.8,N,1.1
1502864855.9,286047002.8,N,1.1
1502864875.7,286046999.9,N,1.2
1502864895.5,286047000.0,N,1.2
1502864915.4,286047000.2,N,1.2
1502864935.2,286047000.6,N,1.2
1502864955.0,286047002.1,N,1.1
1502864955.9,286047002.1,N,1.1
1502864975.8,286046999.8,N,1.1
1502864995.6,286047000.1,N,1.1
1502865015.5,286047000.3,N,1.1
1502865035.3,286047000.9,N,1.1
1502865055.1,286047000.9,N,1.1
1502865075.9,286046998.1,N,1.2
1502865095.7,286047000.5,N,1.2
1502865115.6,286047000.3,N,1.2
1502865135.4,286046999.7,N,1.2
1502865155.2,286047002.6,N,1.2
1502865175.1,286047000.0,N,1.3
1502865176.0,286047000.0,N,1.3
1502865195.8,286047001.5,N,1.3
1502865215.6,286047001.8,N,1.2
1502865235.5,286047004.4,Y,0.0
1502865255.3,286047002.4,P,0.6
1502865275.2,286047002.4,P,0.6
1502865295.0,286047002.4,P,0.5
1502865295.9,286047002.4,Y,0.0
1502865315.7,286047001.1,P,0.5
1502865335.6,286046998.5,P,1.5
1502865355.4,286046998.1,N,1.7
1502865375.3,286047000.4,N,1.5
1502865395.1,286047000.7,N,1.4
1502865415.8,286046998.1,N,1.5
1502865435.7,286046998.3,N,1.5
1502865455.5,286046998.2,N,1.5
1502865475.4,286046998.5,N,1.4
1502865495.2,286046998.4,N,1.4
1502865515.0,286046998.2,N,1.4
1502865515.9,286046998.2,N,1.3
1502865535.8,286046998.5,N,1.3
1502865555.6,286046999.2,N,1.3
1502865575.5,286046997.2,N,1.3
1502865595.3,286046997.8,N,1.3
1502865615.1,286046995.0,Y,0.0
1502865635.9,286046997.4,P,0.8
1502865655.7,286046997.9,N,0.6
1502865675.6,286046995.0,P,1.4
1502865695.4,286046994.9,Y,0.0
1502865715.2,286046999.6,P,1.1
1502865735.1,286046996.5,P,1.3
1502865736.0,286046996.5,N,1.3
1502865755.8,286046998.2,N,1.2
1502865775.6,286046999.1,N,1.2
1502865795.5,286046996.9,N,1.2
1502865815.3,286046997.8,N,1.1
1502865835.2,286046997.9,N,1.0
1502865855.0,286046998.0,N,1.0
1502865855.9,286046998.0,N,0.9
1502865875.7,286046997.6,N,0.9
1502865895.6,286046997.8,N,0.9
1502865915.4,286046996.2,Y,0.0
1502865935.3,286046996.7,P,0.5
1502865955.1,286046999.4,N,1.1
1502865975.8,286046999.3,N,1.1
1502865995.7,286046996.8,N,1.2
1502866015.5,286046997.9,N,1.1
1502866035.4,286046994.9,Y,0.0
1502866055.2,286046997.3,P,0.3
1502866075.0,286046997.1,P,0.4
1502866075.9,286046997.1,P,0.4
1502866095.8,286046998.8,Y,0.0
1502866115.6,286047000.2,P,1.4
1502866135.5,286046999.7,N,1.2
1502866155.3,286046999.9,N,1.1
1502866175.1,286047000.2,N,1.1
1502866195.9,286047001.0,N,1.1
1502866215.7,286046998.1,N,1.2
1502866235.6,286046998.1,N,1.2
1502866255.4,286046998.5,N,1.2
1502866275.2,286047000.3,N,1.2
1502866295.1,286047000.3,N,1.1
1502866296.0,286047000.3,N,1.1
1502866315.8,286047001.0,N,1.1
1502866335.7,286047001.1,N,1.2
1502866355.5,286046998.9,N,1.1
1502866375.3,286046999.3,N,1.1
1502866395.2,286046999.2,N,1.1
1502866415.0,286046996.5,Y,0.0
1502866415.9,286046996.5,P,1.6
1502866435.8,286046996.6,N,1.4
1502866455.6,286046999.1,N,1.4
1502866475.4,286046999.3,N,1.4
1502866495.3,286046999.6,N,1.4
1502866515.1,286046999.3,N,1.3
1502866535.8,286046998.3,N,1.2
1502866555.7,286046998.8,N,1.1
1502866575.5,286046999.3,N,1.1
1502866595.4,286046999.6,N,1.1
1502866615.2,286046999.3,N,1.1
1502866635.0,286046999.1,N,1.0
1502866635.9,286046999.1,N,1.0
1502866655.8,286046999.4,N,1.0
1502866675.6,286046997.0,Y,0.0
1502866695.5,286046998.5,P,0.2
1502866715.3,286046998.2,P,0.3
1502866735.1,286046998.6,P,0.2
1502866755.9,286046996.8,Y,0.0
1502866775.7,286046998.4,P,0.1
1502866795.6,286046999.3,P,0.4
